Location: Düngen
(52.0952°N, 10.0219°E)
Time: 08:36:01
(UTC+00:00)

CSL-04 Rocket - Visible Passes

Search period start: 09 June 2026 00:00
Search period end: 19 June 2026 00:00
Orbit: 804 x 859 km, 98.6° (Epoch: 8 June)

Date Brightness Start Highest point End Pass type
(mag) Time Alt. Az. Time Alt. Az. Time Alt. Az.
9 Jun 6.4 20:50:42 10° WSW 20:52:29 12° W 20:54:16 10° WNW visible
10 Jun 6.1 20:31:24 10° SW 20:34:39 16° W 20:37:53 10° NW visible
15 Jun 6.3 20:45:12 10° WSW 20:47:27 13° W 20:49:43 10° WNW visible
16 Jun 6.1 20:26:09 10° SW 20:29:37 18° W 20:33:07 10° NW visible
